336P/McNaught (2017)

Japanese version
Home page
Updated on October 8, 2017

---------------------------------------------------------------------

* Profile

Designation 336P/2016 B2
Recovery Date January 18, 2016
Magnitude 21.8 mag
Recoverer Pan-STARRS 1 telescope (Haleakala)

* Pictures

* Orbital Elements

Epoch 2017 Feb. 16.0 TT = JDT 2457800.5
T 2017 Feb. 3.05537 TT                                  MPCW
q   2.7815513            (2000.0)            P               Q
n   0.08755397     Peri.  308.49076     -0.36161649     +0.89242437
a   5.0228724      Node   298.25798     -0.73124086     -0.45103016
e   0.4462230      Incl.   17.83918     -0.57837731     +0.01226935
P  11.26
From 136 observations 2006 Apr. 5-2016 Apr. 12, mean residual 0".5.

* Magnitudes Graph

        m1 = 12.0 + 5 log d + 10 log r

---------------------------------------------------------------------

The orbital elements are published on M.P.E.C. 2016-H35.
The magnitudes graphs are made with Comet for Windows.

---------------------------------------------------------------------

Copyright(C) Seiichi Yoshida (comet@aerith.net). All rights reserved.